QPF
0.00 0.00 0.00 0.00 0.01 0.03 0.03 0.03 0.03 0.02 0.03 0.02 0.01 0.02 0.02 0.03 0.05 0.05 0.04 0.04 0.05 0.05 0.05 0.04 0.05 0.04 0.04 0.05 0.05 0.05 0.05 0.06 0.07 0.06 0.07 0.06 0.07 0.06 0.05 0.09 0.11 0.11 0.06
0.00 0.00 0.00 0.00 0.01 0.02 0.02 0.03 0.02 0.01 0.03 0.02 0.02 0.02 0.03 0.04 0.05 0.07 0.06 0.05 0.04 0.04 0.05 0.06 0.07 0.08 0.10 0.08 0.08 0.07 0.07 0.06 0.06 0.07 0.08 0.07 0.07 0.06 0.07 0.10 0.11 0.07 0.06
0.00 0.00 0.00 0.01 0.01 0.01 0.01 0.02 0.02 0.01 0.01 0.01 0.02 0.03 0.03 0.04 0.05 0.06 0.05 0.04 0.04 0.04 0.04 0.05 0.08 0.10 0.21 0.30 0.19 0.09 0.06 0.06 0.06 0.07 0.08 0.07 0.07 0.07 0.07 0.09 0.09 0.06 0.06
0.00 0.00 0.00 0.01 0.01 0.01 0.02 0.03 0.03 0.02 0.02 0.01 0.02 0.02 0.03 0.05 0.05 0.04 0.03 0.03 0.03 0.03 0.03 0.04 0.04 0.05 0.13 0.22 0.17 0.09 0.06 0.05 0.05 0.05 0.05 0.05 0.06 0.06 0.06 0.07 0.07 0.05 0.04
0.00 0.00 0.01 0.01 0.01 0.01 0.01 0.02 0.02 0.03 0.02 0.02 0.03 0.03 0.03 0.04 0.06 0.05 0.02 0.02 0.03 0.03 0.02 0.02 0.02 0.04 0.08 0.10 0.10 0.07 0.06 0.05 0.04 0.04 0.04 0.04 0.05 0.05 0.06 0.06 0.06 0.05 0.05
0.00 0.00 0.01 0.02 0.01 0.02 0.02 0.03 0.03 0.02 0.01 0.01 0.03 0.03 0.02 0.03 0.04 0.04 0.03 0.03 0.03 0.03 0.04 0.04 0.04 0.04 0.09 0.12 0.10 0.07 0.06 0.05 0.04 0.05 0.05 0.05 0.05 0.05 0.06 0.06 0.05 0.03 0.02
0.00 0.01 0.01 0.03 0.02 0.03 0.03 0.03 0.04 0.03 0.02 0.02 0.03 0.03 0.03 0.03 0.03 0.03 0.04 0.03 0.03 0.03 0.05 0.07 0.08 0.07 0.07 0.11 0.10 0.07 0.05 0.04 0.04 0.04 0.03 0.03 0.03 0.04 0.04 0.04 0.03 0.02 0.02
0.00 0.00 0.00 0.02 0.02 0.03 0.03 0.04 0.05 0.05 0.03 0.02 0.04 0.05 0.06 0.04 0.03 0.02 0.03 0.02 0.02 0.03 0.05 0.05 0.06 0.08 0.06 0.06 0.07 0.06 0.05 0.04 0.04 0.04 0.03 0.02 0.02 0.03 0.03 0.04 0.04 0.03 0.03
0.00 0.00 0.00 0.00 0.01 0.01 0.02 0.03 0.04 0.05 0.05 0.03 0.01 0.04 0.07 0.06 0.03 0.02 0.02 0.01 0.02 0.03 0.04 0.04 0.03 0.03 0.04 0.03 0.03 0.03 0.04 0.04 0.05 0.05 0.04 0.03 0.04 0.03 0.03 0.02 0.02 0.02 0.02
0.00 0.00 0.00 0.00 0.00 0.00 0.00 0.01 0.02 0.04 0.06 0.05 0.04 0.03 0.03 0.04 0.04 0.02 0.01 0.02 0.02 0.01 0.01 0.02 0.02 0.03 0.03 0.03 0.02 0.02 0.02 0.02 0.03 0.05 0.04 0.04 0.03 0.02 0.02 0.02 0.02 0.02 0.03
0.00 0.00 0.00 0.00 0.00 0.00 0.00 0.00 0.01 0.01 0.03 0.05 0.05 0.04 0.03 0.03 0.04 0.02 0.02 0.02 0.02 0.02 0.01 0.02 0.03 0.02 0.02 0.02 0.02 0.02 0.02 0.03 0.04 0.04 0.04 0.04 0.03 0.02 0.02 0.02 0.02 0.03 0.05
0.01 0.01 0.00 0.01 0.00 0.00 0.00 0.00 0.00 0.01 0.01 0.02 0.02 0.02 0.03 0.03 0.04 0.03 0.03 0.02 0.01 0.01 0.02 0.02 0.02 0.02 0.01 0.01 0.01 0.02 0.02 0.04 0.05 0.03 0.02 0.02 0.02 0.01 0.01 0.02 0.02 0.05 0.07
0.02 0.01 0.00 0.01 0.01 0.01 0.00 0.00 0.00 0.01 0.00 0.01 0.01 0.01 0.01 0.02 0.03 0.02 0.03 0.03 0.01 0.01 0.01 0.01 0.02 0.02 0.01 0.01 0.01 0.01 0.01 0.01 0.01 0.01 0.02 0.01 0.01 0.01 0.01 0.01 0.02 0.06 0.09
0.01 0.01 0.01 0.01 0.01 0.01 0.01 0.00 0.01 0.01 0.00 0.00 0.00 0.00 0.00 0.01 0.01 0.01 0.02 0.03 0.02 0.02 0.01 0.01 0.01 0.01 0.01 0.01 0.01 0.01 0.01 0.01 0.01 0.01 0.01 0.01 0.01 0.02 0.02 0.02 0.02 0.05 0.11
0.00 0.00 0.00 0.00 0.00 0.01 0.01 0.01 0.01 0.01 0.01 0.01 0.01 0.00 0.00 0.00 0.01 0.01 0.01 0.01 0.02 0.03 0.02 0.01 0.01 0.01 0.01 0.01 0.00 0.01 0.01 0.00 0.00 0.01 0.01 0.01 0.02 0.02 0.03 0.03 0.04 0.05 0.11
0.00 0.00 0.00 0.00 0.00 0.01 0.01 0.00 0.00 0.01 0.00 0.00 0.00 0.00 0.00 0.01 0.01 0.01 0.01 0.01 0.02 0.02 0.02 0.01 0.01 0.01 0.01 0.01 0.00 0.01 0.00 0.01 0.01 0.01 0.00 0.01 0.02 0.02 0.02 0.03 0.04 0.06 0.15
0.00 0.00 0.00 0.00 0.00 0.00 0.00 0.00 0.00 0.00 0.00 0.00 0.00 0.00 0.00 0.00 0.00 0.00 0.01 0.01 0.01 0.01 0.02 0.02 0.02 0.02 0.02 0.02 0.02 0.02 0.02 0.01 0.01 0.00 0.00 0.00 0.01 0.01 0.01 0.02 0.03 0.04 0.08
0.00 0.00 0.00 0.01 0.00 0.00 0.00 0.00 0.00 0.00 0.00 0.00 0.00 0.00 0.00 0.00 0.00 0.00 0.01 0.01 0.01 0.01 0.02 0.01 0.02 0.02 0.02 0.02 0.02 0.02 0.01 0.01 0.00 0.00 0.01 0.01 0.00 0.01 0.01 0.01 0.01 0.02 0.02
0.00 0.00 0.00 0.00 0.00 0.00 0.00 0.00 0.00 0.00 0.00 0.00 0.00 0.00 0.00 0.00 0.00 0.00 0.00 0.00 0.01 0.01 0.01 0.01 0.01 0.01 0.01 0.01 0.01 0.01 0.01 0.00 0.00 0.00 0.00 0.01 0.01 0.01 0.01 0.01 0.01 0.01 0.01
0.00 0.00 0.00 0.00 0.00 0.00 0.00 0.00 0.00 0.00 0.00 0.00 0.00 0.00 0.00 0.00 0.00 0.00 0.00 0.00 0.00 0.01 0.01 0.01 0.01 0.00 0.00 0.00 0.00 0.01 0.00 0.00 0.00 0.00 0.00 0.00 0.01 0.01 0.01 0.01 0.01 0.01 0.01
0.00 0.00 0.00 0.00 0.00 0.00 0.00 0.00 0.00 0.00 0.00 0.00 0.00 0.00 0.00 0.00 0.00 0.00 0.00 0.00 0.01 0.01 0.01 0.01 0.01 0.00 0.00 0.00 0.00 0.00 0.00 0.01 0.01 0.00 0.01 0.01 0.01 0.01 0.01 0.01 0.01 0.01 0.01
0.01 0.01 0.01 0.02 0.01 0.01 0.01 0.01 0.00 0.00 0.00 0.00 0.00 0.00 0.00 0.00 0.00 0.00 0.00 0.00 0.00 0.00 0.01 0.01 0.01 0.01 0.00 0.00 0.00 0.00 0.00 0.01 0.01 0.00 0.00 0.01 0.02 0.01 0.01 0.01 0.00 0.00 0.00
0.01 0.01 0.02 0.02 0.01 0.01 0.01 0.00 0.00 0.00 0.00 0.00 0.00 0.00 0.00 0.00 0.00 0.00 0.00 0.00 0.00 0.00 0.00 0.00 0.01 0.01 0.01 0.01 0.00 0.00 0.00 0.00 0.00 0.00 0.00 0.02 0.03 0.03 0.02 0.02 0.01 0.00 0.00
0.01 0.01 0.01 0.01 0.01 0.00 0.00 0.00 0.00 0.00 0.00 0.00 0.00 0.00 0.00 0.00 0.00 0.00 0.00 0.00 0.00 0.00 0.00 0.00 0.00 0.00 0.00 0.00 0.00 0.00 0.00 0.00 0.00 0.00 0.01 0.01 0.02 0.03 0.03 0.02 0.02 0.01 0.01
0.01 0.00 0.00 0.00 0.00 0.00 0.00 0.00 0.00 0.00 0.00 0.00 0.00 0.00 0.00 0.00 0.00 0.00 0.00 0.00 0.00 0.00 0.00 0.00 0.00 0.00 0.00 0.00 0.01 0.00 0.00 0.00 0.00 0.00 0.01 0.01 0.01 0.01 0.02 0.02 0.02 0.02 0.02
0.00 0.00 0.00 0.00 0.00 0.00 0.00 0.00 0.00 0.00 0.00 0.00 0.00 0.00 0.00 0.00 0.00 0.00 0.00 0.00 0.00 0.00 0.00 0.00 0.00 0.00 0.00 0.00 0.01 0.01 0.00 0.00 0.00 0.00 0.01 0.01 0.01 0.01 0.01 0.01 0.02 0.02 0.02
MSLP
1014.93 1015.00 1015.03 1015.05 1015.06 1015.11 1015.20 1015.32 1015.45 1015.59 1015.71 1015.80 1015.86 1015.92 1015.99 1016.10 1016.25 1016.42 1016.61 1016.78 1016.88 1016.90 1016.82 1016.66 1016.42 1016.14 1015.84 1015.56 1015.28 1015.00 1014.69 1014.33 1013.89 1013.37 1012.79 1012.17 1011.55 1010.99 1010.51 1010.15 1009.92 1009.81 1009.82
1015.03 1015.10 1015.15 1015.19 1015.24 1015.32 1015.44 1015.57 1015.72 1015.85 1015.96 1016.04 1016.10 1016.15 1016.23 1016.33 1016.48 1016.65 1016.84 1017.00 1017.11 1017.15 1017.10 1016.97 1016.77 1016.53 1016.28 1016.02 1015.75 1015.47 1015.15 1014.77 1014.32 1013.79 1013.20 1012.58 1011.95 1011.36 1010.84 1010.42 1010.11 1009.91 1009.81
1015.16 1015.23 1015.29 1015.37 1015.46 1015.59 1015.73 1015.88 1016.03 1016.16 1016.25 1016.31 1016.36 1016.40 1016.45 1016.55 1016.68 1016.84 1017.01 1017.17 1017.28 1017.33 1017.32 1017.23 1017.08 1016.90 1016.68 1016.46 1016.21 1015.93 1015.61 1015.24 1014.78 1014.26 1013.68 1013.07 1012.46 1011.87 1011.34 1010.88 1010.50 1010.22 1010.02
1015.35 1015.41 1015.49 1015.60 1015.73 1015.89 1016.06 1016.22 1016.37 1016.48 1016.56 1016.60 1016.62 1016.64 1016.68 1016.75 1016.86 1017.00 1017.16 1017.30 1017.42 1017.49 1017.50 1017.46 1017.37 1017.23 1017.07 1016.88 1016.66 1016.39 1016.08 1015.70 1015.25 1014.74 1014.19 1013.61 1013.03 1012.46 1011.94 1011.46 1011.04 1010.69 1010.40
1015.62 1015.67 1015.76 1015.88 1016.04 1016.22 1016.41 1016.58 1016.71 1016.81 1016.86 1016.87 1016.87 1016.87 1016.89 1016.95 1017.04 1017.16 1017.30 1017.44 1017.56 1017.64 1017.69 1017.69 1017.65 1017.57 1017.46 1017.30 1017.10 1016.85 1016.54 1016.16 1015.73 1015.24 1014.72 1014.17 1013.63 1013.10 1012.59 1012.12 1011.68 1011.28 1010.92
1015.98 1016.01 1016.09 1016.23 1016.40 1016.59 1016.77 1016.93 1017.05 1017.12 1017.15 1017.15 1017.13 1017.12 1017.13 1017.17 1017.25 1017.36 1017.49 1017.62 1017.74 1017.84 1017.91 1017.96 1017.96 1017.94 1017.87 1017.75 1017.57 1017.33 1017.03 1016.65 1016.22 1015.75 1015.25 1014.74 1014.23 1013.74 1013.26 1012.80 1012.35 1011.92 1011.51
1016.43 1016.44 1016.51 1016.64 1016.80 1016.98 1017.15 1017.29 1017.39 1017.44 1017.45 1017.44 1017.42 1017.41 1017.42 1017.47 1017.54 1017.64 1017.76 1017.89 1018.01 1018.12 1018.21 1018.29 1018.34 1018.36 1018.33 1018.24 1018.09 1017.86 1017.55 1017.18 1016.74 1016.28 1015.79 1015.31 1014.84 1014.37 1013.92 1013.47 1013.02 1012.57 1012.13
1016.95 1016.94 1016.99 1017.10 1017.25 1017.40 1017.55 1017.67 1017.75 1017.78 1017.79 1017.78 1017.77 1017.77 1017.80 1017.86 1017.94 1018.04 1018.15 1018.26 1018.38 1018.49 1018.60 1018.71 1018.79 1018.84 1018.84 1018.78 1018.65 1018.42 1018.12 1017.74 1017.31 1016.84 1016.36 1015.89 1015.44 1014.99 1014.56 1014.12 1013.67 1013.22 1012.76
1017.49 1017.47 1017.51 1017.60 1017.72 1017.86 1017.98 1018.07 1018.14 1018.17 1018.18 1018.19 1018.20 1018.23 1018.29 1018.37 1018.45 1018.55 1018.65 1018.75 1018.85 1018.96 1019.07 1019.18 1019.29 1019.36 1019.39 1019.35 1019.23 1019.02 1018.71 1018.33 1017.90 1017.43 1016.96 1016.49 1016.04 1015.61 1015.19 1014.76 1014.32 1013.86 1013.40
1018.01 1017.99 1018.02 1018.09 1018.20 1018.32 1018.42 1018.50 1018.56 1018.60 1018.63 1018.66 1018.72 1018.79 1018.87 1018.97 1019.07 1019.16 1019.24 1019.32 1019.40 1019.48 1019.58 1019.69 1019.80 1019.89 1019.93 1019.91 1019.81 1019.60 1019.31 1018.93 1018.50 1018.03 1017.56 1017.11 1016.67 1016.25 1015.83 1015.41 1014.97 1014.52 1014.06
1018.47 1018.46 1018.49 1018.56 1018.66 1018.76 1018.86 1018.94 1019.00 1019.06 1019.12 1019.19 1019.29 1019.40 1019.52 1019.63 1019.74 1019.82 1019.88 1019.92 1019.97 1020.02 1020.10 1020.19 1020.29 1020.38 1020.44 1020.43 1020.34 1020.15 1019.87 1019.50 1019.08 1018.63 1018.17 1017.73 1017.30 1016.90 1016.49 1016.08 1015.66 1015.21 1014.75
1018.84 1018.85 1018.90 1018.98 1019.08 1019.18 1019.28 1019.36 1019.44 1019.53 1019.62 1019.74 1019.88 1020.02 1020.17 1020.31 1020.41 1020.48 1020.51 1020.52 1020.53 1020.55 1020.59 1020.65 1020.74 1020.82 1020.88 1020.87 1020.79 1020.62 1020.36 1020.01 1019.61 1019.19 1018.76 1018.34 1017.94 1017.55 1017.17 1016.78 1016.37 1015.94 1015.49
1019.12 1019.17 1019.24 1019.34 1019.45 1019.56 1019.66 1019.77 1019.87 1019.98 1020.12 1020.27 1020.45 1020.63 1020.81 1020.95 1021.05 1021.11 1021.12 1021.10 1021.07 1021.04 1021.05 1021.08 1021.14 1021.21 1021.26 1021.25 1021.18 1021.02 1020.77 1020.45 1020.08 1019.69 1019.29 1018.90 1018.54 1018.19 1017.84 1017.48 1017.10 1016.69 1016.25
1019.35 1019.44 1019.55 1019.67 1019.79 1019.91 1020.04 1020.15 1020.28 1020.42 1020.59 1020.78 1020.99 1021.20 1021.39 1021.55 1021.65 1021.69 1021.68 1021.64 1021.58 1021.52 1021.50 1021.50 1021.53 1021.58 1021.61 1021.60 1021.52 1021.36 1021.13 1020.83 1020.48 1020.12 1019.75 1019.40 1019.08 1018.77 1018.46 1018.14 1017.80 1017.41 1017.00
1019.57 1019.71 1019.85 1019.99 1020.14 1020.28 1020.42 1020.55 1020.70 1020.86 1021.05 1021.26 1021.49 1021.72 1021.93 1022.10 1022.20 1022.25 1022.23 1022.17 1022.09 1022.02 1021.97 1021.95 1021.96 1021.97 1021.98 1021.95 1021.86 1021.69 1021.46 1021.16 1020.83 1020.48 1020.14 1019.82 1019.53 1019.26 1018.99 1018.72 1018.41 1018.07 1017.69
1019.86 1020.03 1020.21 1020.38 1020.55 1020.70 1020.85 1021.00 1021.15 1021.32 1021.52 1021.75 1021.99 1022.23 1022.45 1022.62 1022.74 1022.79 1022.78 1022.73 1022.65 1022.57 1022.50 1022.46 1022.45 1022.44 1022.41 1022.35 1022.23 1022.05 1021.80 1021.49 1021.15 1020.80 1020.46 1020.16 1019.88 1019.64 1019.40 1019.16 1018.90 1018.60 1018.26
1020.25 1020.46 1020.67 1020.87 1021.06 1021.23 1021.39 1021.53 1021.68 1021.85 1022.04 1022.26 1022.50 1022.74 1022.97 1023.16 1023.29 1023.36 1023.36 1023.33 1023.26 1023.18 1023.12 1023.07 1023.03 1022.99 1022.94 1022.84 1022.68 1022.46 1022.18 1021.84 1021.47 1021.10 1020.74 1020.43 1020.15 1019.90 1019.68 1019.47 1019.24 1018.98 1018.68
1020.76 1021.01 1021.26 1021.49 1021.70 1021.88 1022.03 1022.17 1022.31 1022.46 1022.64 1022.84 1023.06 1023.30 1023.52 1023.71 1023.86 1023.95 1023.98 1023.96 1023.92 1023.85 1023.79 1023.73 1023.68 1023.62 1023.53 1023.40 1023.21 1022.94 1022.62 1022.24 1021.83 1021.41 1021.02 1020.66 1020.35 1020.08 1019.85 1019.64 1019.43 1019.19 1018.92
1021.37 1021.67 1021.95 1022.21 1022.44 1022.63 1022.78 1022.91 1023.02 1023.14 1023.28 1023.46 1023.66 1023.88 1024.09 1024.29 1024.45 1024.55 1024.60 1024.61 1024.58 1024.53 1024.48 1024.41 1024.35 1024.27 1024.15 1023.99 1023.76 1023.46 1023.10 1022.68 1022.22 1021.75 1021.31 1020.89 1020.53 1020.22 1019.96 1019.72 1019.50 1019.28 1019.03
1022.04 1022.38 1022.70 1023.00 1023.24 1023.44 1023.58 1023.69 1023.77 1023.86 1023.96 1024.10 1024.27 1024.46 1024.66 1024.85 1025.01 1025.13 1025.20 1025.22 1025.20 1025.16 1025.10 1025.03 1024.95 1024.85 1024.72 1024.53 1024.29 1023.97 1023.58 1023.13 1022.64 1022.13 1021.62 1021.15 1020.73 1020.36 1020.04 1019.76 1019.51 1019.28 1019.03
1022.69 1023.08 1023.44 1023.77 1024.04 1024.23 1024.37 1024.45 1024.50 1024.55 1024.61 1024.71 1024.84 1025.01 1025.19 1025.36 1025.52 1025.64 1025.71 1025.73 1025.71 1025.66 1025.59 1025.50 1025.41 1025.30 1025.16 1024.97 1024.72 1024.40 1024.01 1023.56 1023.05 1022.51 1021.97 1021.45 1020.96 1020.53 1020.15 1019.81 1019.52 1019.25 1018.99
1023.27 1023.70 1024.11 1024.46 1024.74 1024.94 1025.06 1025.12 1025.15 1025.16 1025.18 1025.24 1025.34 1025.47 1025.63 1025.79 1025.93 1026.04 1026.09 1026.10 1026.06 1025.99 1025.90 1025.79 1025.68 1025.55 1025.41 1025.23 1025.00 1024.70 1024.34 1023.91 1023.42 1022.88 1022.33 1021.78 1021.25 1020.76 1020.31 1019.92 1019.57 1019.26 1018.96
1023.74 1024.21 1024.64 1025.02 1025.31 1025.51 1025.62 1025.66 1025.66 1025.64 1025.63 1025.66 1025.73 1025.84 1025.98 1026.12 1026.24 1026.32 1026.35 1026.33 1026.25 1026.15 1026.01 1025.88 1025.73 1025.60 1025.45 1025.28 1025.08 1024.84 1024.52 1024.14 1023.70 1023.20 1022.66 1022.11 1021.56 1021.03 1020.54 1020.09 1019.68 1019.32 1018.97
1024.08 1024.57 1025.03 1025.42 1025.71 1025.91 1026.01 1026.03 1026.01 1025.97 1025.95 1025.96 1026.01 1026.10 1026.22 1026.34 1026.44 1026.49 1026.49 1026.42 1026.31 1026.15 1025.97 1025.78 1025.61 1025.45 1025.30 1025.15 1024.99 1024.79 1024.54 1024.23 1023.85 1023.41 1022.92 1022.40 1021.85 1021.31 1020.79 1020.30 1019.85 1019.43 1019.03
1024.31 1024.82 1025.28 1025.67 1025.96 1026.15 1026.25 1026.26 1026.23 1026.19 1026.16 1026.16 1026.20 1026.28 1026.39 1026.49 1026.56 1026.59 1026.55 1026.44 1026.27 1026.06 1025.82 1025.58 1025.37 1025.18 1025.02 1024.88 1024.74 1024.59 1024.41 1024.17 1023.87 1023.50 1023.07 1022.59 1022.08 1021.55 1021.02 1020.51 1020.01 1019.55 1019.11
1024.47 1024.98 1025.44 1025.83 1026.11 1026.30 1026.39 1026.40 1026.37 1026.33 1026.30 1026.30 1026.35 1026.43 1026.52 1026.60 1026.66 1026.65 1026.57 1026.42 1026.20 1025.93 1025.64 1025.35 1025.08 1024.86 1024.68 1024.53 1024.41 1024.29 1024.16 1023.98 1023.75 1023.45 1023.09 1022.66 1022.19 1021.68 1021.16 1020.64 1020.13 1019.64 1019.16
Thickness
5735 5734 5733 5731 5730 5728 5727 5727 5726 5725 5724 5724 5724 5724 5724 5724 5723 5722 5722 5723 5724 5726 5727 5729 5730 5732 5733 5735 5734 5734 5735 5735 5736 5737 5738 5739 5740 5741 5742 5743 5744 5744 5745
5734 5732 5731 5729 5728 5727 5726 5725 5723 5722 5721 5720 5720 5720 5721 5721 5721 5720 5720 5720 5721 5722 5724 5726 5728 5729 5732 5733 5731 5731 5732 5732 5733 5733 5734 5735 5736 5737 5738 5739 5740 5741 5742
5732 5731 5729 5727 5726 5725 5724 5722 5721 5719 5718 5717 5716 5717 5717 5718 5718 5719 5719 5719 5719 5719 5721 5723 5724 5726 5727 5727 5727 5728 5728 5729 5729 5730 5730 5731 5732 5733 5734 5735 5736 5737 5738
5729 5728 5726 5724 5724 5722 5721 5719 5718 5716 5714 5714 5713 5714 5715 5715 5716 5717 5718 5718 5717 5717 5718 5719 5720 5722 5722 5722 5722 5723 5724 5724 5725 5726 5727 5727 5728 5729 5730 5731 5732 5734 5735
5727 5725 5724 5723 5722 5720 5719 5718 5715 5714 5711 5711 5711 5711 5712 5712 5714 5715 5716 5716 5716 5715 5715 5716 5716 5717 5717 5718 5718 5719 5719 5720 5721 5722 5722 5723 5724 5725 5726 5727 5728 5730 5731
5724 5723 5722 5720 5719 5717 5716 5715 5713 5712 5711 5710 5711 5709 5710 5711 5711 5712 5713 5713 5714 5714 5713 5713 5713 5713 5713 5713 5713 5714 5714 5715 5716 5717 5718 5718 5719 5720 5721 5723 5724 5725 5727
5721 5721 5720 5718 5717 5714 5713 5713 5711 5709 5708 5709 5706 5703 5706 5708 5708 5709 5710 5710 5710 5711 5711 5711 5711 5710 5709 5709 5708 5709 5709 5711 5712 5713 5714 5714 5715 5716 5717 5718 5720 5721 5722
5719 5719 5718 5716 5714 5712 5711 5711 5709 5706 5706 5708 5703 5699 5695 5697 5702 5706 5706 5706 5706 5707 5707 5707 5707 5707 5705 5704 5704 5704 5705 5706 5708 5709 5709 5710 5711 5711 5712 5713 5715 5716 5717
5717 5716 5716 5715 5713 5712 5709 5709 5708 5705 5702 5704 5705 5699 5692 5688 5693 5698 5701 5702 5703 5702 5703 5703 5703 5702 5702 5701 5700 5700 5701 5702 5703 5704 5705 5706 5706 5707 5708 5708 5709 5710 5711
5715 5714 5714 5713 5712 5711 5709 5708 5707 5706 5703 5700 5702 5704 5702 5699 5692 5688 5694 5697 5699 5699 5699 5699 5698 5698 5698 5697 5696 5696 5696 5697 5698 5699 5700 5700 5701 5702 5703 5704 5704 5705 5705
5713 5712 5712 5711 5710 5709 5708 5707 5705 5704 5703 5700 5699 5700 5700 5700 5699 5691 5686 5689 5692 5695 5696 5695 5694 5694 5694 5693 5692 5691 5691 5692 5692 5693 5694 5695 5696 5697 5698 5698 5698 5699 5699
5710 5710 5710 5709 5708 5707 5706 5705 5704 5703 5702 5701 5699 5699 5697 5694 5692 5691 5686 5686 5686 5689 5692 5692 5691 5690 5690 5688 5688 5687 5687 5686 5687 5687 5687 5688 5689 5691 5692 5693 5693 5693 5694
5707 5707 5708 5706 5705 5705 5704 5703 5702 5701 5700 5698 5697 5697 5696 5695 5695 5692 5687 5685 5684 5686 5687 5688 5688 5687 5686 5684 5683 5682 5682 5682 5682 5681 5681 5682 5683 5684 5686 5687 5686 5686 5688
5706 5706 5706 5705 5703 5703 5702 5701 5699 5699 5698 5697 5696 5695 5693 5693 5693 5690 5687 5683 5679 5680 5681 5681 5683 5683 5682 5680 5679 5678 5677 5677 5677 5676 5676 5676 5677 5677 5678 5679 5678 5679 5680
5706 5705 5704 5702 5701 5700 5699 5698 5696 5696 5695 5694 5693 5692 5690 5690 5689 5688 5687 5684 5678 5672 5671 5675 5676 5678 5677 5676 5675 5674 5673 5672 5671 5671 5670 5670 5670 5670 5670 5670 5670 5670 5671
5704 5703 5702 5700 5699 5697 5696 5695 5693 5693 5692 5690 5690 5688 5687 5686 5685 5685 5684 5683 5680 5674 5669 5671 5672 5673 5673 5672 5670 5669 5668 5667 5666 5666 5665 5664 5664 5663 5663 5663 5662 5662 5662
5701 5700 5699 5698 5696 5695 5693 5691 5690 5690 5688 5687 5687 5685 5683 5683 5681 5681 5680 5678 5676 5673 5667 5667 5669 5669 5668 5667 5666 5665 5664 5663 5662 5661 5660 5659 5658 5657 5656 5655 5655 5654 5653
5699 5698 5697 5695 5694 5692 5691 5689 5687 5686 5685 5683 5682 5681 5679 5679 5677 5676 5675 5673 5671 5670 5665 5661 5662 5663 5662 5662 5661 5660 5659 5657 5656 5656 5654 5653 5652 5651 5649 5648 5646 5645 5645
5696 5695 5694 5692 5690 5689 5688 5686 5684 5683 5681 5680 5678 5677 5675 5674 5672 5671 5670 5668 5667 5666 5663 5659 5657 5657 5656 5656 5655 5654 5653 5651 5650 5649 5648 5646 5645 5644 5642 5641 5639 5637 5636
5694 5692 5691 5690 5688 5686 5684 5683 5681 5679 5677 5676 5675 5673 5672 5670 5668 5667 5665 5663 5662 5659 5657 5654 5651 5650 5650 5650 5648 5645 5643 5644 5643 5643 5641 5639 5637 5636 5635 5633 5632 5630 5628
5692 5690 5688 5686 5684 5682 5681 5679 5677 5676 5673 5672 5670 5669 5667 5666 5665 5662 5660 5657 5656 5653 5650 5647 5644 5643 5641 5640 5638 5638 5635 5635 5635 5635 5633 5632 5630 5629 5627 5626 5624 5622 5620
5688 5686 5684 5682 5680 5679 5677 5675 5673 5671 5670 5668 5666 5665 5664 5662 5660 5657 5655 5653 5651 5647 5643 5640 5638 5635 5634 5633 5632 5631 5628 5625 5623 5626 5625 5623 5623 5620 5619 5618 5616 5614 5612
5685 5683 5681 5679 5676 5675 5674 5671 5669 5667 5665 5664 5663 5661 5660 5658 5655 5652 5650 5648 5646 5643 5641 5636 5632 5630 5628 5627 5626 5623 5620 5617 5615 5617 5616 5614 5614 5612 5611 5610 5608 5606 5603
5682 5679 5677 5676 5673 5672 5670 5668 5665 5663 5661 5660 5659 5657 5655 5653 5651 5648 5645 5642 5640 5638 5636 5633 5630 5627 5625 5623 5620 5617 5614 5612 5610 5609 5607 5603 5603 5602 5603 5601 5599 5597 5594
5679 5677 5675 5673 5670 5668 5667 5664 5662 5659 5657 5656 5655 5653 5651 5649 5647 5644 5640 5636 5634 5631 5630 5628 5625 5622 5619 5616 5613 5609 5605 5601 5598 5598 5598 5594 5593 5592 5592 5591 5589 5586 5584
5678 5675 5672 5671 5669 5666 5664 5661 5658 5655 5652 5651 5650 5649 5647 5644 5642 5639 5634 5630 5626 5625 5624 5621 5618 5615 5613 5609 5606 5601 5597 5591 5588 5586 5587 5584 5581 5579 5578 5579 5577 5574 5572